Regional Weather Roundup
Issued by NWS

Home | Current Version | Previous Version | Text Only | Print | Product List | Glossary On
Versions: 1 2 3 4 5 6 7 8 9 10 11 12 13 14 15 16 17 18 19 20 21 22 23 24 25 26 27 28 29 30 31 32 33 34 35 36 37 38 39 40 41 42 43 44 45 46 47 48 49 50
000
ASUS43 KLSX 100210
RWRMO

WEATHER SUMMARY FOR MISSOURI
NATIONAL WEATHER SERVICE SPRINGFIELD MO
800 PM CST TUE FEB 09 2016

NOTE: "FAIR" INDICATES FEW OR NO CLOUDS BELOW 12,000 FEET WITH NO
       SIGNIFICANT WEATHER AND/OR OBSTRUCTIONS TO VISIBILITY.
       CURRENT SKY AND/OR WEATHER CONDITIONS ARE NOT AVAILABLE FOR
       CHILLICOTHE AND FARMINGTON.

MOZ001>031-035>038-043-044-053-054-100300-
...NORTHERN AND WESTERN MISSOURI...

CITY           SKY/WX    TMP DP  RH WIND       PRES   REMARKS
KANSAS CTY INT CLEAR     22   8  55 NW9       30.26R WCI  12
KANSAS C DTWN  CLEAR     25   7  46 NW9       30.27R WCI  15
LEE`S SUMMIT   CLEAR     23   5  46 NW10      30.25R WCI  12
ST JOSEPH      CLEAR     22   9  57 NW16      30.28S WCI   8
CHILLICOTHE      N/A     22   8  55 NW9       30.23R WCI  12
KIRKSVILLE     FLURRIES  18   3  52 NW17G35   30.16R WCI   3

$$
MOZ066>068-077>081-088>096-101>105-100300-
...SOUTHWEST MISSOURI...

CITY           SKY/WX    TMP DP  RH WIND       PRES   REMARKS
SPRINGFIELD    CLEAR     26   4  38 NW15G23   30.18R WCI  14
JOPLIN         CLEAR     27   7  42 NW15      30.27R WCI  15

$$
MOZ032>034-039>042-045>050-055>058-069>072-100300-
...CENTRAL MISSOURI...

CITY           SKY/WX    TMP DP  RH WIND       PRES   REMARKS
COLUMBIA       CLEAR     20   8  60 W8        30.15R WCI  10
JEFFERSON CITY CLEAR     23   9  55 W13       30.18S WCI  11
ROLLA          CLEAR     20   9  62 NW14      30.11S WCI   7
SEDALIA        CLEAR     22   7  52 NW14      30.20S WCI   9
WHITEMAN AFB   CLEAR     23   4  43 NW13G20   30.20S WCI  11
WARRENSBURG    CLEAR     23   5  46 NW8       30.24R WCI  14
OSAGE BEACH    CLEAR     25   5  42 NW7       30.18R WCI  17

$$
MOZ051-052-059>065-100300-
...EAST CENTRAL MISSOURI...

CITY           SKY/WX    TMP DP  RH WIND       PRES   REMARKS
ST LOUIS INTL  PTCLDY    24  10  55 NW9       30.10S WCI  14
SPIRIT OF STL  CLOUDY    26  12  55 W16G23    30.11R WCI  14
ST CHARLES     CLEAR     22  11  62 NW12      30.11R WCI  10

$$
MOZ072>076-082>087-097>100-106>115-100300-
...SOUTH CENTRAL AND SOUTHEAST MISSOURI...

CITY           SKY/WX    TMP DP  RH WIND       PRES   REMARKS
CAPE GIRARDEAU MOCLDY    22  13  68 W9        30.12R WCI  12
FARMINGTON     MOCLDY    23  10  57 NW13G20   30.09S WCI  11
POPLAR BLUFF   CLEAR     26  11  52 NW6       30.14R WCI  19
WEST PLAINS    CLEAR     26   7  44 NW13G21   30.12S WCI  15

$$



USA.gov is the U.S. government's official web portal to all federal, state and local government web resources and services.